sat.trackr.live / text

‹ back to catalog

STARLINK-34873

NORAD 65346 · 2025-189Z

PAYLOAD ACTIVE UNKNOWN

§ Identity

Operator
Country
US
Launch date
2025-08-27
Launch site
AFETR
Launch vehicle
Mass (kg)
RCS (m²)

Purposes: comms

External: N2YO · Heavens-Above · Gunter

§ Orbital elements

Epoch: 2026-05-24T15:59:38.231808Z

Period
94.11 min
Inclination
53.1582°
Eccentricity
0.0001130
Mean motion
15.30195938 rev/d
Perigee alt
474.5 km
Apogee alt
476.0 km
Semi-major
6,853.4 km
B*
6.0394e-4
RAAN
213.5198°
Arg perigee
79.7850°
Mean anomaly
280.3278°
Rev number
4,275

§ Raw data

STARLINK-348731 65346U 25189Z   26144.66641472  .00017568  00000+0  60394-3 0  99932 65346  53.1582 213.5198 0001130  79.7850 280.3278 15.30195938 42752

JSON: /api/v1/satellites/65346 · /tle

For live sub-satellite position, see the globe view (requires WebGL).

§ Visibility from observer

Set your observer location to see the next 7 days of passes ≥ 10°. The values pass through the URL so the page stays shareable.

No JS? Fill the form by hand. The geolocation button needs JavaScript.